Location: Unspecified
(51.5147°N, 7.4673°E)
Time: 19:01:39
(UTC+01:00)

Vanguard 1 Rocket - Pass Details

Date: 23 February 2026
Orbit: 653 x 4214 km, 34.3° (Epoch: 12 March)

Event Time Altitude Azimuth Distance (km) Brightness Sun altitude
Rises 14:07:29 0° 238° (WSW) 4,152 11.6 26.2°
Reaches altitude 10° 14:10:06 10° 228° (SW) 3,517 11.7 26.0°
Maximum altitude 14:18:16 34° 168° (SSE) 3,049 11.2 25.5°
Drops below altitude 10° 14:32:23 10° 113° (ESE) 6,097 11.6 24.4°
Sets 14:38:50 0° 106° (ESE) 7,651 12.0 23.9°
